Constantinos Artymatas

Recruteur en chef - AE Kition
25 Mars 2027
Jeudi
Processus

Personnalité

Adaptabilité (4) Ambition (9) Controverse (6) Loyauté (11) Pression (20) Professionnalisme (6) Sportivité (8) Tempérament (3)

Profil

Style d'entraînement Démocratique
Diplôme Continental Pro
Détermination 2
Gestion des joueurs 2
Motivation 9
Discipline 2
Satisfaction professionnelle
86%
Fatigue
0%
Rôle Recruteur en chef
Salaire 26.9K p/s
Contrat 14.03.2029

Performance

Comportement Bon
Efficacité de l'entraînement
23%
Développement des joueurs
40%
Prévention des blessures
40%
Mise en place tactique
30%

Événements récents

A évalué un joueur maintenant
A participé à une réunion de recrutement maintenant
A participé à une réunion de recrutement 7j
A participé à une réunion de recrutement 7j
A évalué un joueur 7j
A évalué un joueur 7j
A évalué un joueur 7j
A évalué un joueur 7j

Suivi en cours

146
Joueur Club Statut Capacité Confiance Observé Dernière observation Dernier vote
Mark Helm Fleetwood Town Actif 92 / 94 40% 3 24.03.2027 -
Diego Esteban Panetolikos Actif 119 / 118 40% 1 24.03.2027 -
Juan Cejas Ethnikos Achnas Actif 117 / 108 40% 4 22.03.2027 -
Fedde de Jong De Graafschap Actif 109 / 97 40% 1 22.03.2027 -
Daniil Gurchenko Spartak Tambov Actif 105 / 74 40% 2 21.03.2027 -
Aaron Drinan Swindon Town Actif 119 / 95 40% 2 21.03.2027 -
Elliott List Northampton Town Actif 98 / 88 40% 2 19.03.2027 -
Miguel Falé Pacos de Ferreira Actif 98 / 119 40% 1 19.03.2027 -
Jordan Brown Blackpool Actif 104 / 106 40% 2 18.03.2027 -
Jay Matete Milton Keynes Dons Actif 114 / 120 40% 1 18.03.2027 -
Christos Giousis Nea Salamis Actif 107 / 94 40% 2 16.03.2027 -
Luke Molyneux Doncaster Rovers Actif 106 / 111 40% 1 16.03.2027 -
Vincent Harper Walsall Actif 98 / 85 40% 1 15.03.2027 -
Denver Hume Fleetwood Town Actif 114 / 120 40% 1 15.03.2027 -
Alex Opoku Sarfo Aris Actif 125 / 109 40% 4 13.03.2027 -
Giorgos Manthatis Levadiakos Actif 105 / 80 40% 3 13.03.2027 -
Marcus Browne AFC Wimbledon Actif 96 / 99 40% 2 11.03.2027 -
Alan Tsaraev Arsenal Tula Actif 97 / 110 40% 1 11.03.2027 -
Kyle John Port Vale Actif 110 / 107 40% 3 10.03.2027 -
Jamie Jellis Walsall Actif 77 / 101 40% 1 10.03.2027 -
Kyreece Lisbie Colchester United Actif 113 / 93 40% 4 09.03.2027 -
Luca Andrada AEL Larisa Actif 101 / 92 40% 2 08.03.2027 -
Fraser Murray Wigan Athletic Actif 115 / 129 40% 1 08.03.2027 -
Ethan Coleman Gillingham Actif 108 / 98 40% 1 07.03.2027 -
Ramazan Gadjimuradov Chelyabinsk Actif 116 / 92 40% 1 07.03.2027 -
Matías González Volos NPS Actif 104 / 135 40% 2 05.03.2027 -
Charlie Whitaker Tranmere Rovers Actif 87 / 99 40% 1 05.03.2027 -
Ibrahim Cissoko Zwolle Actif 118 / 117 40% 4 04.03.2027 -
Leo Goglichidze Rodina Actif 108 / 107 40% 1 04.03.2027 -
Danil Lipovoy Ufa Actif 96 / 78 40% 4 01.03.2027 -
Daniel Kyerewaa Reading Actif 98 / 110 40% 2 01.03.2027 -
Kamil Conteh Bristol Rovers Actif 107 / 112 40% 1 26.02.2027 -
Abdoulaye Sow AS Police Actif 87 / 70 40% 3 25.02.2027 -
Ilja Safronov Rotor Actif 101 / 89 40% 1 25.02.2027 -
Andrea Ciofi Cesena Actif 127 / 133 40% 2 24.02.2027 -
Bruno Onyemaechi Olympiacos Actif 129 / 112 40% 6 23.02.2027 -
Marko Musulin Tarxien Rainbows Actif 95 / 77 40% 1 23.02.2027 -
Vladimir Khubulov Dinamo Makhachkala Actif 100 / 118 40% 1 22.02.2027 -
Veljko Nikolić Aris Actif 104 / 97 40% 3 21.02.2027 -
Alex Pattison Walsall Actif 101 / 101 40% 1 21.02.2027 -
Nikita Yershov Kosmos Actif 83 / 65 40% 1 20.02.2027 -
Christián Herc Pafos Actif 119 / 121 40% 2 18.02.2027 -
Bruno Figueiredo Zabbar St. Patrick Actif 103 / 110 40% 3 16.02.2027 -
Nikita Kireev Dinamo Vologda Actif 69 / 90 40% 1 16.02.2027 -
Iker Pozo Rodina Actif 131 / 101 40% 1 15.02.2027 -
Kevin Lara Chaika Actif 93 / 91 40% 3 14.02.2027 -
Kirill Malyarov Shinnik Actif 89 / 116 40% 1 13.02.2027 -
Emmanuel Lomotey Ethnikos Achnas Actif 123 / 116 40% 2 10.02.2027 -
Moussa Wagué Panserraikos Actif 117 / 92 40% 2 10.02.2027 -
Liam Bennett Cambridge United Actif 87 / 109 40% 1 08.02.2027 -
Jack Currie Oxford United Actif 109 / 122 40% 2 06.02.2027 -
Edarlyn Reyes Arsenal Tula Actif 97 / 111 40% 2 05.02.2027 -
Gilson Benchimol Akron Actif 106 / 112 40% 2 04.02.2027 -
Marcos Cuenca Zaragoza Actif 116 / 126 40% 1 04.02.2027 -
Ansor Khabibov Ryazan Actif 91 / 97 40% 1 01.02.2027 -
Danila Shilov Dinamo Stavropol Actif 79 / 82 40% 2 30.01.2027 -
Kane Drummond Oldham Athletic Actif 106 / 104 40% 1 29.01.2027 -
Adil Taoui Lokomotiv Sofia Actif 123 / 93 40% 3 28.01.2027 -
Hakeem Odoffin Luton Town Actif 124 / 134 40% 1 28.01.2027 -
Connor Barrett Walsall Actif 86 / 115 40% 1 24.01.2027 -
Brian Gambarte Sliema Wanderers Actif 89 / 104 40% 1 24.01.2027 -
Temirkan Sundukov Dinamo Makhachkala Actif 115 / 95 40% 2 22.01.2027 -
Dylan Duffy Chesterfield Actif 85 / 118 40% 1 22.01.2027 -
Ipalibo Jack Hamrun Spartans Actif 93 / 88 40% 2 21.01.2027 -
Stephen Duke-McKenna KAMAZ Actif 95 / 90 40% 1 21.01.2027 -
Nohan Kenneh Tranmere Rovers Actif 87 / 97 40% 1 20.01.2027 -
Simone Ianesi Pianese Actif 109 / 105 40% 1 19.01.2027 -
Mateo Fernández Angusht Actif 85 / 91 40% 1 19.01.2027 -
Gal Kurež Paralimni Actif 112 / 87 40% 2 17.01.2027 -
Vladislav Sarveli Nizhniy Novgorod Actif 118 / 129 40% 2 16.01.2027 -
Kléri Serber Hamrun Spartans Actif 98 / 91 40% 1 16.01.2027 -
Maxime Sivis Orenburg Actif 108 / 110 40% 1 09.01.2027 -
Nikolay Maximov Krylya Sovetov Actif 76 / 88 40% 1 04.01.2027 -
Ryan Stirk Chesterfield Actif 86 / 80 40% 1 03.01.2027 -
Vasilis Sourlis AEL Larisa Actif 96 / 82 40% 1 03.01.2027 -
Rio Adébísí Peterborough United Actif 103 / 77 40% 2 02.01.2027 -
Migran Ageyan Ufa Actif 85 / 79 40% 1 30.12.2026 -
Kelechi Nwakali Barnsley Actif 108 / 106 40% 1 27.12.2026 -
Nikolay Boyarkin Salyut Actif 102 / 86 40% 1 24.12.2026 Plus d'infos
Braian Álvarez Arsenal Tula Actif 92 / 88 40% 1 21.12.2026 -
Dmitry Tsypchenko Torpedo Moscow Refusé 107 / 117 40% 1 20.12.2026 Plus d'infos
Stephen Humphrys Bradford City Actif 110 / 90 40% 1 18.12.2026 -
Robbie McKenzie Gillingham Actif 106 / 91 40% 1 18.12.2026 -
Giorgos Nikas Levadiakos Actif 115 / 84 40% 1 16.12.2026 -
Louis Appéré Cambridge United Actif 86 / 106 40% 1 14.12.2026 -
Matt Smith Newport County Actif 82 / 80 40% 1 13.12.2026 -
Miloš Brnović Arsenal Tula Refusé 102 / 101 40% 2 10.12.2026 Plus d'infos
Jack Lankester Crewe Alexandra Actif 106 / 113 40% 1 10.12.2026 -
Agustín Ramírez Inter Actif 100 / 98 40% 2 08.12.2026 -
Alexandr Saplinov Volga Actif 94 / 120 40% 1 25.11.2026 -
Jonathan Sulemana BA All Stars Actif 107 / 84 40% 1 22.11.2026 -
Apostolos Apostolopoulos Panetolikos Actif 116 / 106 40% 1 20.11.2026 -
Jhon Labastidas Doxa Actif 90 / 81 40% 2 19.11.2026 -
Robin Gonzalez HNK Vukovar 1991 Actif 98 / 113 40% 1 19.11.2026 -
Darnell Bile Panserraikos Actif 92 / 87 40% 1 18.11.2026 -
Kirill Danilin Fakel Actif 118 / 89 40% 1 17.11.2026 -
Raúl Lozano Quilmes Actif 130 / 139 40% 1 16.11.2026 -
Alexander Mojžiš MFK Ruzomberok Actif 95 / 111 40% 1 15.11.2026 -
Danila Vedernikov Orenburg Actif 97 / 104 40% 1 15.11.2026 -
Nichita Moțpan SKA Khabarovsk Actif 103 / 108 40% 1 14.11.2026 -
Krasian Kolev Chernomorets Actif 82 / 116 40% 1 13.11.2026 -
Mohamed Azzi Dinamo Makhachkala Actif 99 / 108 40% 1 10.11.2026 -
Nikolay Titkov Baltika Actif 105 / 131 40% 1 08.11.2026 -
Daniel Rivillo Rotor Actif 99 / 101 40% 1 03.11.2026 -
Maksym Chekh Obolon Actif 109 / 92 40% 1 02.11.2026 -
Giorgos Tzovaras Atromitos Actif 100 / 109 40% 1 02.11.2026 -
Juan Pablo Barinaga Patronato Actif 106 / 101 40% 2 20.10.2026 -
Luciano Pascual Godoy Cruz Actif 110 / 96 40% 1 20.10.2026 -
Michalis Patiras Sapovnela Actif 88 / 69 40% 2 19.10.2026 -
Nodar Lominadze Torpedo Kutaisi Actif 107 / 124 40% 1 19.10.2026 -
David Gallardo Gimnasia y Esgrima Actif 111 / 123 40% 1 18.10.2026 -
Darío Ramírez Real Sociedad Actif 104 / 97 40% 1 18.10.2026 -
Ivan Churikov Sibir Actif 104 / 97 40% 1 17.10.2026 -
Peter Grance Martínez San Miguel Actif 117 / 128 40% 1 15.10.2026 -
Marcelo Matzuda Angusht Actif 79 / 61 40% 1 15.10.2026 -
Freddy Molina Union Magdalena Actif 99 / 93 40% 2 13.10.2026 -
Giorgos Papadopoulos Atromitos Actif 101 / 69 40% 2 13.10.2026 -
Daniil Paroutis AEL Actif 113 / 127 40% 1 10.10.2026 -
Jonathan Farías Saburtalo Actif 94 / 102 40% 1 10.10.2026 -
Nemanja Glavčić AEL Actif 110 / 115 40% 2 08.10.2026 -
Lucas Richarte Temperley Actif 97 / 88 40% 2 08.10.2026 -
Lucas Arce Godoy Cruz Actif 125 / 113 40% 1 02.10.2026 -
Giorgi Beridze Dinamo Tbilisi Actif 115 / 112 40% 1 01.10.2026 -
Christos Papadopoulos Levadiakos Actif 98 / 96 40% 1 01.10.2026 -
Revaz Mikautadze Tskhinvali Actif 108 / 92 40% 1 27.09.2026 -
Michalis Panagidis Aris Thessaloniki Actif 79 / 105 40% 1 25.09.2026 -
Yeangel Montero Naxxar Lions Actif 91 / 91 40% 1 21.09.2026 -
Kirill Leonovich Gomel Actif 82 / 95 40% 1 21.09.2026 -
Gonzalo Córdoba Lokomotivi Actif 115 / 109 40% 1 17.09.2026 -
Giorgos Marinos Panserraikos Actif 97 / 99 40% 2 14.09.2026 -
Sergio Riffo Kolkheti Actif 100 / 77 40% 2 13.09.2026 -
Manuel Sulbarán Deportivo La Guaira Actif 105 / 95 40% 1 13.09.2026 -
Vasilis Grosdis Volos NPS Actif 68 / 96 40% 2 12.09.2026 -
Mauro Peinipil Colón Actif 105 / 134 40% 1 12.09.2026 -
Eirik Brekke Ermis Actif 101 / 107 40% 2 09.09.2026 -
Giorgos Konstantakopoulos Kifisia Actif 94 / 81 40% 1 09.09.2026 -
Luciano Cingolani Gimnasia y Esgrima Actif 122 / 99 40% 1 07.09.2026 -
Cristian Ludueña Talleres Actif 121 / 111 40% 1 07.09.2026 -
Alexis Steimbach Gimnasia La Plata Actif 126 / 117 40% 1 01.09.2026 -
Franco Sivetti Gimnasia y Tiro Actif 91 / 117 40% 1 31.08.2026 -
Nemanja Tošić Anorthosis Actif 101 / 106 40% 1 29.08.2026 -
Jan Salas Mallorca Actif 99 / 122 40% 1 28.08.2026 -
Konstantinos Apostolakis Kifisia Actif 82 / 103 40% 1 27.08.2026 -
Elián Giménez Sarmiento Actif 130 / 125 40% 1 27.08.2026 -
Fernando Román Defensa y Justicia Actif 121 / 108 40% 1 26.08.2026 -
Ramiro Ruiz Rodríguez Atlético Tucumán Actif 106 / 121 40% 1 25.08.2026 -